Weather History for Big Rapids, MI

Change the Weather History Date:

Tuesday, May 29, 2012

  Actual Average Record
Temperature  
Mean Temperature 62 °F -  
Max Temperature 75 °F 73 °F 89 °F (1987)
Min Temperature 49 °F 49 °F 28 °F (2008)
Degree Days  
Heating Degree Days 3    
Growing Degree Days 12 (Base 50)    
Moisture  
Dew Point 54 °F    
Average Humidity 70    
Maximum Humidity 100    
Minimum Humidity 36    
Precipitation  
Precipitation 0.00 in - - ()
Sea Level Pressure  
Sea Level Pressure 29.75 in    
Wind  
Wind Speed 7 mph (West)    
Max Wind Speed 23 mph    
Max Gust Speed 34 mph    
Visibility 10 miles    
Events      
Averages and records for this station are not official NWS values.
T = Trace of Precipitation, MM = Missing Value Source: NWS Daily Summary

Daily Weather History Graph

Daily Weather History Graph

Search for Another Location

Airport:

Trip Planner

Search our weather history database for the weather conditions in past years. The results will help you decide how hot, cold, wet, or windy it might be!

Date:

Astronomy

May. 29, 2012 Rise Set
Actual Time 6:04 AM EDT 9:14 PM EDT
Civil Twilight 5:29 AM EDT 9:49 PM EDT
Nautical Twilight 4:44 AM EDT 10:34 PM EDT
Astronomical Twilight 3:50 AM EDT 11:29 PM EDT
Moon 2:33 PM EDT (5/29) 2:10 AM EDT (5/29)
Length of Visible Light 16h 20m
Length of Day
15h 10m
First Quarter, 59% of the Moon is Illuminated
May 29
First Quarter
Jun 4
Full
Jun 11
Last Quarter
Jun 19
New
Jun 26
First Quarter

Hourly Weather History & Observations

Time (EDT) Temp. Dew Point Humidity Pressure Visibility Wind Dir Wind Speed Gust Speed Precip Events Conditions
12:14 AM 66.2 °F 63.9 °F 92% 29.70 in 10.0 mi NW 6.9 mph - N/A   Mostly Cloudy
12:35 AM 65.8 °F 64.4 °F 95% 29.72 in 10.0 mi WSW 6.9 mph - N/A   Mostly Cloudy
12:55 AM 66.2 °F 63.5 °F 91% 29.70 in 10.0 mi SW 4.6 mph - N/A   Scattered Clouds
1:15 AM 66.0 °F 63.5 °F 92% 29.71 in 10.0 mi WSW 5.8 mph - N/A   Scattered Clouds
1:35 AM 66.2 °F 62.8 °F 89% 29.69 in 10.0 mi Calm Calm - N/A   Scattered Clouds
1:54 AM 65.7 °F 63.9 °F 94% 29.71 in 10.0 mi Calm Calm - N/A   Clear
2:14 AM 65.3 °F 64.6 °F 98% 29.71 in 10.0 mi Calm Calm - N/A   Mostly Cloudy
2:35 AM 65.5 °F 63.9 °F 94% 29.70 in 10.0 mi Calm Calm - N/A   Scattered Clouds
2:54 AM 65.3 °F 63.5 °F 94% 29.70 in 10.0 mi Calm Calm - N/A   Clear
3:14 AM 63.5 °F 63.5 °F 100% 29.70 in 7.0 mi Calm Calm - N/A   Clear
3:35 AM 63.5 °F 63.5 °F 100% 29.70 in 10.0 mi SSE 3.5 mph - N/A   Clear
3:54 AM 63.0 °F 63.0 °F 100% 29.69 in 10.0 mi SSE 3.5 mph - N/A   Clear
4:14 AM 62.4 °F 62.4 °F 100% 29.69 in 10.0 mi Calm Calm - N/A   Clear
4:35 AM 59.9 °F 59.9 °F 100% 29.71 in 2.0 mi Calm Calm - N/A   Clear
4:54 AM 61.0 °F 61.0 °F 100% 29.72 in 7.0 mi WSW 3.5 mph - N/A   Clear
5:14 AM 63.1 °F 63.1 °F 100% 29.72 in 10.0 mi West 9.2 mph - N/A   Clear
5:35 AM 63.0 °F 62.8 °F 99% 29.72 in 10.0 mi West 6.9 mph 17.3 mph N/A   Clear
5:54 AM 62.6 °F 62.1 °F 98% 29.73 in 10.0 mi NW 8.1 mph - N/A   Clear
6:14 AM 61.7 °F 61.7 °F 100% 29.73 in 10.0 mi NW 6.9 mph - N/A   Clear
6:35 AM 61.5 °F 61.2 °F 99% 29.73 in 10.0 mi NW 6.9 mph 18.4 mph N/A   Clear
6:54 AM 61.7 °F 61.3 °F 99% 29.74 in 10.0 mi NW 10.4 mph 19.6 mph N/A   Clear
7:15 AM 61.2 °F 60.3 °F 97% 29.75 in 10.0 mi NW 5.8 mph 19.6 mph N/A   Clear
7:34 AM 61.7 °F 59.9 °F 94% 29.75 in 10.0 mi WNW 11.5 mph 19.6 mph N/A   Clear
7:54 AM 61.9 °F 59.4 °F 91% 29.76 in 10.0 mi NW 8.1 mph 16.1 mph N/A   Clear
8:15 AM 63.1 °F 58.3 °F 84% 29.76 in 10.0 mi WNW 15.0 mph 19.6 mph N/A   Clear
8:35 AM 62.1 °F 57.6 °F 85% 29.76 in 10.0 mi NW 9.2 mph 19.6 mph N/A   Clear
8:54 AM 61.9 °F 57.7 °F 86% 29.75 in 10.0 mi WNW 10.4 mph 18.4 mph N/A   Clear
9:15 AM 63.0 °F 57.2 °F 81% 29.76 in 10.0 mi WNW 5.8 mph - N/A   Clear
9:34 AM 63.3 °F 57.0 °F 80% 29.78 in 10.0 mi West 6.9 mph - N/A   Clear
9:54 AM 64.6 °F 56.8 °F 76% 29.79 in 10.0 mi West 6.9 mph - N/A   Clear
10:15 AM 66.2 °F 56.3 °F 70% 29.81 in 10.0 mi West 5.8 mph 16.1 mph N/A   Clear
10:35 AM 65.5 °F 55.8 °F 71% 29.81 in 10.0 mi WNW 12.7 mph 18.4 mph N/A   Clear
10:54 AM 66.9 °F 56.3 °F 69% 29.81 in 10.0 mi West 6.9 mph - N/A   Clear
11:15 AM 69.1 °F 56.3 °F 64% 29.80 in 10.0 mi West 6.9 mph - N/A   Clear
11:34 AM 70.2 °F 53.8 °F 56% 29.79 in 10.0 mi WNW 9.2 mph 17.3 mph N/A   Clear
11:54 AM 70.7 °F 51.1 °F 50% 29.78 in 10.0 mi WNW 16.1 mph 24.2 mph N/A   Clear
12:15 PM 71.8 °F 49.5 °F 45% 29.79 in 10.0 mi West 12.7 mph 21.9 mph N/A   Clear
12:34 PM 72.5 °F 46.6 °F 40% 29.78 in 10.0 mi West 11.5 mph 25.3 mph N/A   Clear
12:54 PM 73.6 °F 47.5 °F 39% 29.77 in 10.0 mi West 11.5 mph 21.9 mph N/A   Clear
1:15 PM 74.1 °F 46.9 °F 38% 29.76 in 10.0 mi WSW 10.4 mph 23.0 mph N/A   Clear
1:34 PM 73.6 °F 46.0 °F 37% 29.75 in 10.0 mi West 9.2 mph 21.9 mph N/A   Clear
1:54 PM 75.0 °F 48.0 °F 38% 29.74 in 10.0 mi WSW 11.5 mph 19.6 mph N/A   Clear
2:15 PM 75.2 °F 46.4 °F 36% 29.74 in 10.0 mi West 17.3 mph 24.2 mph N/A   Clear
2:34 PM 73.4 °F 46.9 °F 39% 29.75 in 10.0 mi WSW 15.0 mph 25.3 mph N/A   Scattered Clouds
2:54 PM 74.3 °F 47.8 °F 39% 29.74 in 10.0 mi West 17.3 mph 25.3 mph N/A   Scattered Clouds
3:15 PM 73.6 °F 48.0 °F 40% 29.74 in 10.0 mi WSW 13.8 mph 25.3 mph N/A   Scattered Clouds
3:34 PM 74.3 °F 48.2 °F 40% 29.74 in 10.0 mi West 23.0 mph 32.2 mph N/A   Mostly Cloudy
3:55 PM 73.0 °F 47.3 °F 40% 29.73 in 10.0 mi WSW 11.5 mph 34.5 mph N/A   Mostly Cloudy
4:14 PM 72.7 °F 49.8 °F 44% 29.73 in 10.0 mi WSW 13.8 mph 26.5 mph N/A   Mostly Cloudy
4:34 PM 72.1 °F 49.3 °F 44% 29.73 in 10.0 mi SW 12.7 mph 21.9 mph N/A   Mostly Cloudy
4:55 PM 71.4 °F 49.5 °F 46% 29.73 in 10.0 mi WSW 11.5 mph 21.9 mph N/A   Mostly Cloudy
5:14 PM 71.1 °F 49.6 °F 47% 29.73 in 10.0 mi West 12.7 mph 21.9 mph N/A   Overcast
5:55 PM 72.1 °F 48.6 °F 43% 29.73 in 10.0 mi WNW 19.6 mph 27.6 mph N/A   Mostly Cloudy
6:14 PM 72.0 °F 46.6 °F 40% 29.74 in 10.0 mi WNW 16.1 mph 19.6 mph N/A   Scattered Clouds
6:34 PM 71.1 °F 44.4 °F 38% 29.74 in 10.0 mi WNW 18.4 mph 25.3 mph N/A   Scattered Clouds
6:55 PM 70.2 °F 43.9 °F 39% 29.75 in 10.0 mi WNW 18.4 mph 27.6 mph N/A   Clear
7:14 PM 69.4 °F 44.6 °F 41% 29.75 in 10.0 mi West 15.0 mph - N/A   Clear
7:34 PM 68.7 °F 44.4 °F 42% 29.76 in 10.0 mi WNW 18.4 mph 23.0 mph N/A   Clear
7:55 PM 67.5 °F 45.3 °F 45% 29.76 in 10.0 mi WNW 16.1 mph 24.2 mph N/A   Clear
8:14 PM 66.4 °F 45.3 °F 47% 29.77 in 10.0 mi NW 16.1 mph 24.2 mph N/A   Clear
8:35 PM 64.8 °F 45.1 °F 49% 29.77 in 10.0 mi NNW 10.4 mph 25.3 mph N/A   Clear
8:55 PM 63.0 °F 46.2 °F 54% 29.78 in 10.0 mi NW 5.8 mph - N/A   Clear
9:14 PM 60.6 °F 46.8 °F 60% 29.78 in 10.0 mi NW 4.6 mph - N/A   Clear
9:35 PM 59.2 °F 46.6 °F 63% 29.78 in 10.0 mi NW 5.8 mph - N/A   Clear
9:55 PM 57.6 °F 46.4 °F 66% 29.79 in 10.0 mi NW 4.6 mph - N/A   Clear
10:14 PM 55.0 °F 46.9 °F 74% 29.80 in 10.0 mi WNW 4.6 mph - N/A   Clear
10:35 PM 53.2 °F 48.2 °F 83% 29.81 in 10.0 mi Calm Calm - N/A   Clear
10:55 PM 51.3 °F 47.5 °F 87% 29.81 in 10.0 mi West 11.5 mph - N/A   Clear
11:14 PM 51.8 °F 47.3 °F 85% 29.81 in 10.0 mi West 9.2 mph - N/A   Clear
11:35 PM 49.6 °F 46.8 °F 90% 29.81 in 10.0 mi West 11.5 mph - N/A   Clear
11:54 PM 49.3 °F 45.9 °F 88% 29.81 in 10.0 mi West 5.8 mph - N/A   Clear